Location: Newark
(45.4422°N, 16.2769°E)
Time: 15:58:37
(UTC+00:00)

Transit 2A Rocket - All Passes

Search period start: 12 December 2019 00:00
Search period end: 22 December 2019 00:00
Orbit: 594 x 909 km, 66.7° (Epoch: 12 December)

Date Brightness Start Highest point End Pass type
(mag) Time Alt. Az. Time Alt. Az. Time Alt. Az.
12 Dec - 00:14:34 10° NW 00:18:52 46° WSW 00:23:27 10° S night (unlit)
12 Dec - 14:51:17 10° SSW 14:55:50 78° ESE 15:00:11 10° NE daylight
12 Dec - 16:35:59 10° W 16:38:52 17° NW 16:41:43 10° N visible
12 Dec - 21:50:25 10° N 21:53:21 17° NE 21:56:23 10° E night (unlit)
12 Dec - 23:31:56 10° NW 23:36:24 82° WSW 23:41:13 10° SSE night (unlit)
13 Dec - 14:09:05 10° S 14:13:23 42° ESE 14:17:30 10° NE daylight
13 Dec - 15:52:19 10° WSW 15:56:02 25° NW 15:59:41 10° NNE visible
13 Dec - 21:08:50 10° NNE 21:10:24 12° NNE 21:12:00 10° NE night (unlit)
13 Dec - 22:49:27 10° NNW 22:53:51 58° NE 22:58:34 10° SE night (unlit)
14 Dec - 00:32:55 10° WNW 00:36:01 18° WSW 00:39:17 10° SSW night (unlit)
14 Dec - 13:27:23 10° SSE 13:31:01 24° ESE 13:34:31 10° ENE daylight
14 Dec - 15:09:05 10° WSW 15:13:20 41° NW 15:17:27 10° NNE daylight
14 Dec - 22:07:07 10° NNW 22:11:13 35° NE 22:15:32 10° ESE night (unlit)
14 Dec - 23:49:40 10° NW 23:53:42 32° WSW 23:57:58 10° S night (unlit)
15 Dec - 12:46:38 10° SE 12:48:44 13° ESE 12:50:48 10° E daylight
15 Dec - 14:26:13 10° SW 14:30:44 72° NW 14:35:03 10° NNE daylight
15 Dec - 16:12:00 10° WNW 16:14:02 13° NW 16:16:03 10° N visible
15 Dec - 21:24:56 10° N 21:28:28 22° NE 21:32:08 10° E night (unlit)
15 Dec - 23:06:52 10° NW 23:11:17 56° WSW 23:16:01 10° SSE night (unlit)
16 Dec - 13:43:45 10° SSW 13:48:13 63° ESE 13:52:31 10° NE daylight
16 Dec - 15:27:56 10° W 15:31:07 19° NW 15:34:17 10° N daylight
16 Dec - 20:43:00 10° N 20:45:36 15° NE 20:48:16 10° ENE night (unlit)
16 Dec - 22:24:17 10° NNW 22:28:47 83° ENE 22:33:38 10° SE night (unlit)
17 Dec - 00:08:49 10° W 00:10:46 12° WSW 00:12:44 10° SW night (unlit)
17 Dec - 13:01:43 10° S 13:05:48 34° ESE 13:09:45 10° NE daylight
17 Dec - 14:44:25 10° WSW 14:48:20 30° NW 14:52:10 10° NNE daylight
17 Dec - 20:01:58 10° NNE 20:02:37 10° NNE 20:03:15 10° NE night (unlit)
17 Dec - 21:41:52 10° NNW 21:46:12 48° NE 21:50:51 10° SE night (unlit)
17 Dec - 23:24:56 10° WNW 23:28:29 22° WSW 23:32:13 10° SSW night (unlit)
18 Dec - 12:20:15 10° SSE 12:23:28 19° ESE 12:26:36 10° ENE daylight
18 Dec - 14:01:19 10° SW 14:05:40 49° NW 14:09:53 10° NNE daylight
18 Dec - 20:59:34 10° NNW 21:03:32 30° NE 21:07:42 10° ESE night (unlit)
18 Dec - 22:41:54 10° NW 22:46:07 39° WSW 22:50:39 10° S night (unlit)
19 Dec - 11:40:32 10° ESE 11:41:13 10° ESE 11:41:55 10° E daylight
19 Dec - 13:18:36 10° SSW 13:23:06 87° NW 13:27:27 10° NNE daylight
19 Dec - 15:03:46 10° WNW 15:06:16 15° NW 15:08:44 10° N daylight
19 Dec - 20:17:28 10° N 20:20:45 20° NE 20:24:09 10° E night (unlit)
19 Dec - 21:59:10 10° NW 22:03:41 69° WSW 22:08:32 10° SSE night (unlit)
20 Dec - 12:36:15 10° SSW 12:40:37 51° ESE 12:44:50 10° NE daylight
20 Dec - 14:19:56 10° W 14:23:24 22° NW 14:26:48 10° N daylight
20 Dec - 19:35:39 10° N 19:37:50 13° NE 19:40:05 10° ENE night (unlit)
20 Dec - 21:16:39 10° NNW 21:21:09 69° NE 21:26:00 10° SE night (unlit)
20 Dec - 23:00:31 10° WNW 23:03:14 16° WSW 23:06:05 10° SW night (unlit)
21 Dec - 11:54:23 10° S 11:58:14 28° ESE 12:01:57 10° NE daylight
21 Dec - 13:36:34 10° WSW 13:40:39 35° NW 13:44:38 10° NNE daylight
21 Dec - 20:34:17 10° NNW 20:38:33 41° NE 20:43:06 10° ESE night (unlit)
21 Dec - 22:17:04 10° NW 22:20:56 27° WSW 22:25:03 10° S night (unlit)
